{"data":{"norad_id":59044,"epoch":"2026-09-20T23:03:36.588096Z","epoch_age_seconds":116595,"freshness":"FRESH","line1":"1 59044U 24038X   26263.96084014  .00001415  00000+0  60961-4 0  9996","line2":"2 59044  43.0032   0.6715 0001296 282.8745  77.1961 15.27575174144553","mean_motion":15.27575174,"eccentricity":0.0001296,"inclination_deg":43.0032,"raan_deg":0.6715,"arg_perigee_deg":282.8745,"mean_anomaly_deg":77.1961,"bstar":6.0961e-5,"rev_number":14455,"period_min":94.267046526379,"perigee_km":482.17433526697,"apogee_km":483.95275844871,"semimajor_km":6861.2005468578,"source":"CELESTRAK","updated_at":"2026-09-21T09:00:34.032728Z"}}